sat.trackr.live / text

‹ back to catalog

STARLINK-1477

NORAD 45754 · 2020-038AA

PAYLOAD ACTIVE UNKNOWN

§ Identity

Operator
Country
US
Launch date
2020-06-13
Launch site
AFETR
Launch vehicle
Mass (kg)
RCS (m²)

Purposes: comms

External: N2YO · Heavens-Above · Gunter

§ Orbital elements

Epoch: 2026-09-20T02:15:17.947872Z

Period
94.49 min
Inclination
53.0204°
Eccentricity
0.0001751
Mean motion
15.23969095 rev/d
Perigee alt
492.7 km
Apogee alt
495.1 km
Semi-major
6,872.0 km
B*
1.0432e-3
RAAN
42.5876°
Arg perigee
157.3457°
Mean anomaly
202.7616°
Rev number
34,608

§ Raw data

STARLINK-14771 45754U 20038AA  26263.09395773  .00025325  00000+0  10432-2 0  99982 45754  53.0204  42.5876 0001751 157.3457 202.7616 15.23969095346083

JSON: /api/v1/satellites/45754 · /tle

For live sub-satellite position, see the globe view (requires WebGL).

§ Visibility from observer

Set your observer location to see the next 7 days of passes ≥ 10°. The values pass through the URL so the page stays shareable.

No JS? Fill the form by hand. The geolocation button needs JavaScript.